This is the latest recevied weather packets stored in our database for station/object KB4NWJ. If no packets are shown the sender has not sent any weather packets the latest 10 day(s).
| Time | Temp. | Humidity | Pressure | Rain* | Wind** | Luminosity | Snow |
|---|---|---|---|---|---|---|---|
| 1777227675 | 25.56° C | 70% | 1014.2 hPa | 0 mm | - | 768 W/m² | - |
| 1777227371 | 25° C | 72% | 1014.3 hPa | 0 mm | - | 718 W/m² | - |
| 1777227068 | 24.44° C | 70% | 1014.2 hPa | 0 mm | - | 666 W/m² | - |
| 1777226762 | 25.56° C | 70% | 1014.4 hPa | 0 mm | - | 706 W/m² | - |
| 1777226458 | 24.44° C | 71% | 1014.5 hPa | 0 mm | - | 703 W/m² | - |
| 1777226153 | 24.44° C | 69% | 1014.5 hPa | 0 mm | - | 534 W/m² | - |
| 1777225850 | 23.89° C | 73% | 1014.3 hPa | 0 mm | - | 533 W/m² | - |
| 1777225546 | 25° C | 73% | 1014.4 hPa | 0 mm | - | 251 W/m² | - |
| 1777225243 | 25° C | 74% | 1014.6 hPa | 0 mm | - | 477 W/m² | - |
| 1777224939 | 24.44° C | 76% | 1014.5 hPa | 0 mm | - | 756 W/m² | - |
| 1777224637 | 23.33° C | 75% | 1014.6 hPa | 0 mm | - | 717 W/m² | - |
| 1777224337 | 22.78° C | 78% | 1014.9 hPa | 0 mm | - | 645 W/m² | - |
| 1777224033 | 23.33° C | 76% | 1014.7 hPa | 0 mm | - | 545 W/m² | - |
| 1777223731 | 23.33° C | 79% | 1014.7 hPa | 0 mm | - | 668 W/m² | - |
| 1777223426 | 23.33° C | 77% | 1014.7 hPa | 0 mm | - | 268 W/m² | - |
| 1777223125 | 23.33° C | 76% | 1014.7 hPa | 0 mm | - | 667 W/m² | - |
| 1777222821 | 23.33° C | 81% | 1015.1 hPa | 0 mm | - | 685 W/m² | - |
| 1777222519 | 22.78° C | 78% | 1015.1 hPa | 0 mm | - | 722 W/m² | - |
| 1777222216 | 23.89° C | 74% | 1015.3 hPa | 0 mm | - | 739 W/m² | - |
| 1777221915 | 22.78° C | 78% | 1014.9 hPa | 0 mm | - | 702 W/m² | - |
| 1777221609 | 22.78° C | 81% | 1015.2 hPa | 0 mm | - | 498 W/m² | - |
| 1777221306 | 22.78° C | 80% | 1015.1 hPa | 0 mm | - | 678 W/m² | - |
| 1777221003 | 22.22° C | 81% | 1015.1 hPa | 0 mm | - | 714 W/m² | - |
| 1777220698 | 21.67° C | 87% | 1015.3 hPa | 0 mm | - | 337 W/m² | - |
| 1777220395 | 21.11° C | 85% | 1015.1 hPa | 0 mm | - | 333 W/m² | - |
* Rain latest hour (hover to see other rain measurements)
** Current wind speed in m/s (hover to see current wind gust speed)